Location: Earls Croome
(52.0667°N, 2.2000°W)
Time: 02:22:09
(UTC+00:00)

Cosmos 1076 Rocket - Pass Details

Date: 17 November 2019
Orbit: 588 x 614 km, 82.5° (Epoch: 15 December)

Event Time Altitude Azimuth Distance (km) Brightness Sun altitude
Exits shadow 04:31:40 42° 34° (NE) 877 4.5 -27.3°
Drops below altitude 10° 04:34:41 10° 16° (NNE) 1,966 6.3 -26.9°
Sets 04:36:55 0° 14° (NNE) 2,871 7.2 -26.5°
